Time,TemperatureF,DewpointF,PressureIn,WindDirection,WindDirectionDegrees,WindSpeedMPH,WindSpeedGustMPH,Humidity,HourlyPrecipIn,Conditions,Clouds,dailyrainin,SoftwareType,DateUTC
2013-01-23 00:00:00,3.8,-6.0,29.92,WNW,292,2.6,10.5,52,0.00,,,0.00,Rainwise IP-100,2013-01-23 05:00:00,
2013-01-23 00:02:00,3.8,-6.0,29.92,NW,315,4.0,10.5,52,0.00,,,0.00,Rainwise IP-100,2013-01-23 05:02:00,
2013-01-23 00:03:00,3.8,-6.0,29.92,WNW,292,4.7,10.5,52,0.00,,,0.00,Rainwise IP-100,2013-01-23 05:03:00,
2013-01-23 00:08:00,3.7,-6.0,29.93,North,360,5.1,10.3,52,0.00,,,0.00,Rainwise IP-100,2013-01-23 05:08:00,
2013-01-23 00:13:00,3.5,-6.0,29.92,WSW,247,2.6,7.7,52,0.00,,,0.00,Rainwise IP-100,2013-01-23 05:13:00,
2013-01-23 00:18:00,3.4,-6.0,29.92,WNW,292,2.8,7.7,52,0.00,,,0.00,Rainwise IP-100,2013-01-23 05:18:00,
2013-01-23 00:23:00,3.3,-6.0,29.92,WNW,292,6.1,11.0,52,0.00,,,0.00,Rainwise IP-100,2013-01-23 05:23:00,
2013-01-23 00:28:00,3.2,-6.0,29.92,NW,315,2.8,13.8,52,0.00,,,0.00,Rainwise IP-100,2013-01-23 05:28:00,
2013-01-23 00:33:00,3.1,-6.0,29.93,NW,315,3.5,8.9,52,0.00,,,0.00,Rainwise IP-100,2013-01-23 05:33:00,
2013-01-23 00:38:00,2.9,-6.0,29.93,WSW,247,2.3,8.2,52,0.00,,,0.00,Rainwise IP-100,2013-01-23 05:38:00,
2013-01-23 00:43:00,2.8,-6.0,29.93,West,270,4.2,8.6,52,0.00,,,0.00,Rainwise IP-100,2013-01-23 05:43:00,
2013-01-23 00:48:00,2.7,-6.0,29.93,WNW,292,1.2,10.3,52,0.00,,,0.00,Rainwise IP-100,2013-01-23 05:48:00,
2013-01-23 00:53:00,2.6,-6.0,29.93,WNW,292,8.6,8.6,52,0.00,,,0.00,Rainwise IP-100,2013-01-23 05:53:00,
2013-01-23 00:58:00,2.5,-6.0,29.93,NW,315,4.2,11.2,52,0.00,,,0.00,Rainwise IP-100,2013-01-23 05:58:00,
2013-01-23 01:03:00,2.6,-6.0,29.93,NW,315,2.8,10.0,52,0.00,,,0.00,Rainwise IP-100,2013-01-23 06:03:00,
2013-01-23 01:08:00,2.4,-6.0,29.93,SSW,202,0.0,11.0,51,0.00,,,0.00,Rainwise IP-100,2013-01-23 06:08:00,
2013-01-23 01:13:00,2.2,-6.0,29.93,WNW,292,4.4,10.3,51,0.00,,,0.00,Rainwise IP-100,2013-01-23 06:13:00,
2013-01-23 01:18:00,2.2,-6.0,29.93,WSW,247,1.9,12.1,52,0.00,,,0.00,Rainwise IP-100,2013-01-23 06:18:00,
2013-01-23 01:21:00,2.2,-6.0,29.93,WNW,292,2.6,12.1,51,0.00,,,0.00,Rainwise IP-100,2013-01-23 06:21:00,
2013-01-23 01:26:00,2.2,-6.0,29.94,West,270,6.5,14.5,50,0.00,,,0.00,Rainwise IP-100,2013-01-23 06:26:00,
2013-01-23 01:32:00,2.2,-6.0,29.94,WNW,292,7.2,10.7,50,0.00,,,0.00,Rainwise IP-100,2013-01-23 06:32:00,
2013-01-23 01:37:00,2.0,-6.0,29.95,West,270,4.0,9.1,50,0.00,,,0.00,Rainwise IP-100,2013-01-23 06:37:00,
2013-01-23 01:42:00,1.9,-6.0,29.95,WSW,247,4.2,8.6,50,0.00,,,0.00,Rainwise IP-100,2013-01-23 06:42:00,
2013-01-23 01:47:00,1.8,-6.0,29.95,WSW,247,3.7,8.6,50,0.00,,,0.00,Rainwise IP-100,2013-01-23 06:47:00,
2013-01-23 01:52:00,1.7,-6.0,29.95,North,360,4.4,8.9,51,0.00,,,0.00,Rainwise IP-100,2013-01-23 06:52:00,
2013-01-23 01:57:00,1.5,-6.0,29.96,West,270,0.0,6.5,51,0.00,,,0.00,Rainwise IP-100,2013-01-23 06:57:00,
2013-01-23 02:02:00,1.3,-6.0,29.95,SE,135,2.6,6.3,51,0.00,,,0.00,Rainwise IP-100,2013-01-23 07:02:00,
2013-01-23 02:07:00,1.2,-6.0,29.95,WNW,292,6.5,6.5,52,0.00,,,0.00,Rainwise IP-100,2013-01-23 07:07:00,
2013-01-23 02:12:00,1.1,-6.0,29.96,SSW,202,1.4,7.7,52,0.00,,,0.00,Rainwise IP-100,2013-01-23 07:12:00,
2013-01-23 02:17:00,1.1,-6.0,29.96,WNW,292,4.7,13.5,51,0.00,,,0.00,Rainwise IP-100,2013-01-23 07:17:00,
2013-01-23 02:22:00,1.1,-6.0,29.95,NW,315,5.4,17.3,51,0.00,,,0.00,Rainwise IP-100,2013-01-23 07:22:00,
2013-01-23 02:27:00,1.0,-6.0,29.95,WSW,247,7.0,10.0,51,0.00,,,0.00,Rainwise IP-100,2013-01-23 07:27:00,
2013-01-23 02:32:00,0.9,-6.0,29.95,NW,315,7.7,9.8,51,0.00,,,0.00,Rainwise IP-100,2013-01-23 07:32:00,
2013-01-23 02:37:00,0.7,-6.0,29.95,WSW,247,7.5,9.1,51,0.00,,,0.00,Rainwise IP-100,2013-01-23 07:37:00,
2013-01-23 02:42:00,0.6,-6.0,29.95,WNW,292,5.1,9.1,52,0.00,,,0.00,Rainwise IP-100,2013-01-23 07:42:00,
2013-01-23 02:47:00,0.5,-6.0,29.95,WNW,292,1.6,8.4,52,0.00,,,0.00,Rainwise IP-100,2013-01-23 07:47:00,
2013-01-23 02:52:00,0.4,-13.0,29.95,WNW,292,4.0,7.0,53,0.00,,,0.00,Rainwise IP-100,2013-01-23 07:52:00,
2013-01-23 02:57:00,0.2,-13.0,29.95,WSW,247,1.9,7.9,54,0.00,,,0.00,Rainwise IP-100,2013-01-23 07:57:00,
2013-01-23 03:02:00,0.0,-13.0,29.95,WNW,292,2.3,6.5,54,0.00,,,0.00,Rainwise IP-100,2013-01-23 08:02:00,
2013-01-23 03:07:00,0.1,-13.0,29.95,NNW,337,3.0,10.0,55,0.00,,,0.00,Rainwise IP-100,2013-01-23 08:07:00,
2013-01-23 03:12:00,0.3,-13.0,29.95,NNW,337,4.4,4.4,55,0.00,,,0.00,Rainwise IP-100,2013-01-23 08:12:00,
2013-01-23 03:17:00,0.3,-13.0,29.94,WSW,247,0.0,10.0,55,0.00,,,0.00,Rainwise IP-100,2013-01-23 08:17:00,
2013-01-23 03:22:00,0.4,-13.0,29.94,SW,225,2.3,6.3,55,0.00,,,0.00,Rainwise IP-100,2013-01-23 08:22:00,
2013-01-23 03:27:00,0.4,-13.0,29.94,WNW,292,3.0,8.2,55,0.00,,,0.00,Rainwise IP-100,2013-01-23 08:27:00,
2013-01-23 03:32:00,0.4,-13.0,29.94,WNW,292,1.4,7.9,56,0.00,,,0.00,Rainwise IP-100,2013-01-23 08:32:00,
2013-01-23 03:37:00,0.5,-13.0,29.94,WNW,292,4.2,7.9,56,0.00,,,0.00,Rainwise IP-100,2013-01-23 08:37:00,
2013-01-23 03:42:00,0.6,-13.0,29.94,NNW,337,5.8,10.3,56,0.00,,,0.00,Rainwise IP-100,2013-01-23 08:42:00,
2013-01-23 03:47:00,0.6,-13.0,29.94,NNW,337,3.7,10.5,56,0.00,,,0.00,Rainwise IP-100,2013-01-23 08:47:00,
2013-01-23 03:52:00,0.7,-13.0,29.95,WNW,292,1.6,8.2,55,0.00,,,0.00,Rainwise IP-100,2013-01-23 08:52:00,
2013-01-23 03:57:00,-1.0,-13.0,29.94,West,270,0.0,7.2,56,0.00,,,0.00,Rainwise IP-100,2013-01-23 08:57:00,
2013-01-23 04:03:00,-1.1,-13.0,29.95,WNW,292,3.5,7.2,56,0.00,,,0.00,Rainwise IP-100,2013-01-23 09:03:00,
2013-01-23 04:08:00,-1.2,-13.0,29.95,WNW,292,3.7,9.8,56,0.00,,,0.00,Rainwise IP-100,2013-01-23 09:08:00,
2013-01-23 04:13:00,-1.2,-13.0,29.95,NW,315,4.9,9.3,56,0.00,,,0.00,Rainwise IP-100,2013-01-23 09:13:00,
2013-01-23 04:18:00,-1.2,-13.0,29.95,WNW,292,2.8,9.3,55,0.00,,,0.00,Rainwise IP-100,2013-01-23 09:18:00,
2013-01-23 04:23:00,-1.3,-13.0,29.95,NW,315,3.7,8.4,55,0.00,,,0.00,Rainwise IP-100,2013-01-23 09:23:00,
2013-01-23 04:28:00,-1.4,-13.0,29.95,WNW,292,2.8,5.8,56,0.00,,,0.00,Rainwise IP-100,2013-01-23 09:28:00,
2013-01-23 04:33:00,-1.5,-13.0,29.95,WSW,247,1.9,4.9,56,0.00,,,0.00,Rainwise IP-100,2013-01-23 09:33:00,
2013-01-23 04:38:00,-1.6,-13.0,29.95,WNW,292,1.6,8.4,56,0.00,,,0.00,Rainwise IP-100,2013-01-23 09:38:00,
2013-01-23 04:43:00,-1.8,-13.0,29.95,South,180,1.2,9.1,57,0.00,,,0.00,Rainwise IP-100,2013-01-23 09:43:00,
2013-01-23 04:48:00,-2.1,-13.0,29.96,SSW,202,0.0,3.5,57,0.00,,,0.00,Rainwise IP-100,2013-01-23 09:48:00,
2013-01-23 04:53:00,-2.3,-13.0,29.96,NNW,337,4.0,5.1,58,0.00,,,0.00,Rainwise IP-100,2013-01-23 09:53:00,
2013-01-23 04:58:00,-2.3,-13.0,29.96,NW,315,6.5,15.9,57,0.00,,,0.00,Rainwise IP-100,2013-01-23 09:58:00,
2013-01-23 05:03:00,-2.2,-13.0,29.96,WSW,247,1.9,6.8,57,0.00,,,0.00,Rainwise IP-100,2013-01-23 10:03:00,
2013-01-23 05:08:00,-2.3,-13.0,29.96,SSW,202,0.0,6.5,57,0.00,,,0.00,Rainwise IP-100,2013-01-23 10:08:00,
2013-01-23 05:13:00,-2.6,-13.0,29.96,NW,315,4.0,5.8,58,0.00,,,0.00,Rainwise IP-100,2013-01-23 10:13:00,
2013-01-23 05:18:00,-2.8,-13.0,29.96,WNW,292,6.3,11.2,58,0.00,,,0.00,Rainwise IP-100,2013-01-23 10:18:00,
2013-01-23 05:23:00,-2.7,-13.0,29.96,SSW,202,0.0,11.2,58,0.00,,,0.00,Rainwise IP-100,2013-01-23 10:23:00,
2013-01-23 05:28:00,-2.6,-13.0,29.96,WNW,292,2.6,11.9,57,0.00,,,0.00,Rainwise IP-100,2013-01-23 10:28:00,
2013-01-23 05:33:00,-2.6,-13.0,29.97,West,270,5.4,10.5,56,0.00,,,0.00,Rainwise IP-100,2013-01-23 10:33:00,
2013-01-23 05:38:00,-2.7,-13.0,29.97,WSW,247,3.5,9.3,56,0.00,,,0.00,Rainwise IP-100,2013-01-23 10:38:00,
2013-01-23 05:43:00,-2.8,-13.0,29.97,WNW,292,3.7,8.4,56,0.00,,,0.00,Rainwise IP-100,2013-01-23 10:43:00,
2013-01-23 05:48:00,-2.9,-13.0,29.97,WNW,292,4.7,12.6,56,0.00,,,0.00,Rainwise IP-100,2013-01-23 10:48:00,
2013-01-23 05:53:00,-3.0,-13.0,29.98,WNW,292,1.2,11.0,56,0.00,,,0.00,Rainwise IP-100,2013-01-23 10:53:00,
2013-01-23 05:58:00,-3.1,-13.0,29.98,WSW,247,1.9,10.0,56,0.00,,,0.00,Rainwise IP-100,2013-01-23 10:58:00,
2013-01-23 06:03:00,-3.2,-13.0,29.97,WSW,247,4.0,9.8,57,0.00,,,0.00,Rainwise IP-100,2013-01-23 11:03:00,
2013-01-23 06:08:00,-3.5,-13.0,29.98,WNW,292,3.0,4.7,57,0.00,,,0.00,Rainwise IP-100,2013-01-23 11:08:00,
2013-01-23 06:13:00,-3.7,-13.0,29.98,West,270,0.0,9.6,58,0.00,,,0.00,Rainwise IP-100,2013-01-23 11:13:00,
2013-01-23 06:18:00,-3.7,-13.0,29.98,WNW,292,3.7,8.2,58,0.00,,,0.00,Rainwise IP-100,2013-01-23 11:18:00,
2013-01-23 06:23:00,-3.7,-13.0,29.98,NNW,337,2.1,8.2,58,0.00,,,0.00,Rainwise IP-100,2013-01-23 11:23:00,
2013-01-23 06:28:00,-3.7,-13.0,29.98,WNW,292,11.7,11.7,58,0.00,,,0.00,Rainwise IP-100,2013-01-23 11:28:00,
2013-01-23 06:33:00,-3.8,-13.0,29.98,WNW,292,2.3,11.7,58,0.00,,,0.00,Rainwise IP-100,2013-01-23 11:33:00,
2013-01-23 06:39:00,-3.9,-13.0,29.98,West,270,1.4,12.1,58,0.00,,,0.00,Rainwise IP-100,2013-01-23 11:39:00,
2013-01-23 06:44:00,-3.9,-13.0,29.98,WNW,292,3.7,10.7,58,0.00,,,0.00,Rainwise IP-100,2013-01-23 11:44:00,
2013-01-23 06:49:00,-4.0,-13.0,29.98,NNW,337,5.4,7.9,58,0.00,,,0.00,Rainwise IP-100,2013-01-23 11:49:00,
2013-01-23 06:54:00,-4.2,-13.0,29.98,WNW,292,4.0,10.3,58,0.00,,,0.00,Rainwise IP-100,2013-01-23 11:54:00,
2013-01-23 06:59:00,-4.2,-13.0,29.99,WNW,292,6.1,10.5,58,0.00,,,0.00,Rainwise IP-100,2013-01-23 11:59:00,
2013-01-23 07:04:00,-4.2,-13.0,29.99,West,270,4.4,12.4,57,0.00,,,0.00,Rainwise IP-100,2013-01-23 12:04:00,
2013-01-23 07:09:00,-4.2,-13.0,29.98,NW,315,5.6,10.0,57,0.00,,,0.00,Rainwise IP-100,2013-01-23 12:09:00,
2013-01-23 07:14:00,-4.4,-13.0,29.99,WNW,292,1.9,7.7,58,0.00,,,0.00,Rainwise IP-100,2013-01-23 12:14:00,
2013-01-23 07:19:00,-4.4,-13.0,29.99,WNW,292,6.3,12.1,58,0.00,,,0.00,Rainwise IP-100,2013-01-23 12:19:00,
2013-01-23 07:24:00,-4.2,-13.0,29.98,West,270,5.4,10.7,58,0.00,,,0.00,Rainwise IP-100,2013-01-23 12:24:00,
2013-01-23 07:29:00,-4.0,-13.0,29.98,NNW,337,4.7,12.1,58,0.00,,,0.00,Rainwise IP-100,2013-01-23 12:29:00,
2013-01-23 07:34:00,-3.9,-13.0,29.98,West,270,4.9,10.7,57,0.00,,,0.00,Rainwise IP-100,2013-01-23 12:34:00,
2013-01-23 07:39:00,-3.9,-13.0,29.98,WNW,292,6.8,13.8,57,0.00,,,0.00,Rainwise IP-100,2013-01-23 12:39:00,
2013-01-23 07:44:00,-3.8,-13.0,29.98,WNW,292,3.5,12.8,57,0.00,,,0.00,Rainwise IP-100,2013-01-23 12:44:00,
2013-01-23 07:49:00,-3.6,-13.0,29.99,West,270,6.1,16.1,56,0.00,,,0.00,Rainwise IP-100,2013-01-23 12:49:00,
2013-01-23 07:54:00,-3.5,-13.0,29.99,NNW,337,4.4,10.0,56,0.00,,,0.00,Rainwise IP-100,2013-01-23 12:54:00,
2013-01-23 07:59:00,-3.4,-13.0,29.99,West,270,6.8,11.2,56,0.00,,,0.00,Rainwise IP-100,2013-01-23 12:59:00,
2013-01-23 08:04:00,-3.4,-13.0,30.00,NW,315,6.8,11.4,55,0.00,,,0.00,Rainwise IP-100,2013-01-23 13:04:00,
2013-01-23 08:09:00,-3.4,-13.0,29.99,West,270,4.4,13.8,55,0.00,,,0.00,Rainwise IP-100,2013-01-23 13:09:00,
2013-01-23 08:14:00,-3.3,-13.0,29.99,West,270,4.2,17.3,55,0.00,,,0.00,Rainwise IP-100,2013-01-23 13:14:00,
2013-01-23 08:19:00,-3.2,-13.0,30.00,NW,315,1.9,10.0,55,0.00,,,0.00,Rainwise IP-100,2013-01-23 13:19:00,
2013-01-23 08:24:00,-3.0,-13.0,29.99,WSW,247,3.7,14.9,55,0.00,,,0.00,Rainwise IP-100,2013-01-23 13:24:00,
2013-01-23 08:29:00,-2.9,-13.0,29.99,WNW,292,3.0,10.5,54,0.00,,,0.00,Rainwise IP-100,2013-01-23 13:29:00,
2013-01-23 08:34:00,-2.7,-13.0,29.99,NW,315,1.6,6.3,54,0.00,,,0.00,Rainwise IP-100,2013-01-23 13:34:00,
2013-01-23 08:39:00,-2.2,-13.0,29.98,NW,315,3.5,8.4,54,0.00,,,0.00,Rainwise IP-100,2013-01-23 13:39:00,
2013-01-23 08:44:00,-2.3,-13.0,29.99,NNW,337,4.9,13.1,53,0.00,,,0.00,Rainwise IP-100,2013-01-23 13:44:00,
2013-01-23 08:49:00,-2.2,-13.0,29.99,NW,315,7.7,7.7,52,0.00,,,0.00,Rainwise IP-100,2013-01-23 13:49:00,
2013-01-23 08:54:00,-1.9,-13.0,30.00,NNW,337,1.9,9.1,52,0.00,,,0.00,Rainwise IP-100,2013-01-23 13:54:00,
2013-01-23 08:59:00,-1.7,-13.0,29.99,WNW,292,4.7,13.3,51,0.00,,,0.00,Rainwise IP-100,2013-01-23 13:59:00,
2013-01-23 09:04:00,-1.9,-13.0,29.99,WNW,292,2.1,14.9,51,0.00,,,0.00,Rainwise IP-100,2013-01-23 14:04:00,
2013-01-23 09:09:00,-1.8,-13.0,29.99,WNW,292,9.1,13.8,50,0.00,,,0.00,Rainwise IP-100,2013-01-23 14:09:00,
2013-01-23 09:14:00,-1.8,-13.0,29.99,WNW,292,8.2,14.0,50,0.00,,,0.00,Rainwise IP-100,2013-01-23 14:14:00,
2013-01-23 09:19:00,-2.0,-13.0,29.99,WSW,247,10.0,13.5,49,0.00,,,0.00,Rainwise IP-100,2013-01-23 14:19:00,
2013-01-23 09:24:00,-2.1,-13.0,29.99,North,360,5.1,16.3,49,0.00,,,0.00,Rainwise IP-100,2013-01-23 14:24:00,
2013-01-23 09:29:00,-2.1,-13.0,29.99,NNE,22,8.9,16.1,49,0.00,,,0.00,Rainwise IP-100,2013-01-23 14:29:00,
2013-01-23 09:34:00,-1.9,-13.0,29.99,NW,315,7.0,15.2,49,0.00,,,0.00,Rainwise IP-100,2013-01-23 14:34:00,
2013-01-23 09:39:00,-1.6,-13.0,29.98,West,270,3.3,13.5,49,0.00,,,0.00,Rainwise IP-100,2013-01-23 14:39:00,
2013-01-23 09:44:00,-1.1,-13.0,29.98,NW,315,4.9,10.0,48,0.00,,,0.00,Rainwise IP-100,2013-01-23 14:44:00,
2013-01-23 09:49:00,0.8,-13.0,29.98,West,270,7.9,14.5,48,0.00,,,0.00,Rainwise IP-100,2013-01-23 14:49:00,
2013-01-23 09:54:00,-1.1,-13.0,29.99,NNW,337,3.7,14.0,48,0.00,,,0.00,Rainwise IP-100,2013-01-23 14:54:00,
2013-01-23 09:59:00,-1.1,-13.0,29.99,West,270,5.6,11.2,48,0.00,,,0.00,Rainwise IP-100,2013-01-23 14:59:00,
2013-01-23 10:04:00,0.8,-13.0,29.98,WSW,247,1.9,11.7,48,0.00,,,0.00,Rainwise IP-100,2013-01-23 15:04:00,
2013-01-23 10:09:00,0.5,-13.0,29.98,West,270,1.9,14.5,47,0.00,,,0.00,Rainwise IP-100,2013-01-23 15:09:00,
2013-01-23 10:14:00,0.2,-13.0,29.98,NW,315,2.8,11.2,46,0.00,,,0.00,Rainwise IP-100,2013-01-23 15:14:00,
2013-01-23 10:19:00,0.0,-13.0,29.98,NNW,337,7.5,11.9,46,0.00,,,0.00,Rainwise IP-100,2013-01-23 15:19:00,
2013-01-23 10:24:00,0.1,-13.0,29.98,WSW,247,9.8,14.9,46,0.00,,,0.00,Rainwise IP-100,2013-01-23 15:24:00,
2013-01-23 10:29:00,0.3,-13.0,29.98,West,270,6.5,13.3,46,0.00,,,0.00,Rainwise IP-100,2013-01-23 15:29:00,
2013-01-23 10:34:00,0.3,-13.0,29.98,NW,315,11.9,13.5,45,0.00,,,0.00,Rainwise IP-100,2013-01-23 15:34:00,
2013-01-23 10:39:00,0.2,-13.0,29.98,NNW,337,5.4,11.9,45,0.00,,,0.00,Rainwise IP-100,2013-01-23 15:39:00,
2013-01-23 10:44:00,0.1,-13.0,29.97,West,270,5.6,12.6,45,0.00,,,0.00,Rainwise IP-100,2013-01-23 15:44:00,
2013-01-23 10:49:00,0.0,-13.0,29.97,WNW,292,4.7,11.9,45,0.00,,,0.00,Rainwise IP-100,2013-01-23 15:49:00,
2013-01-23 10:54:00,0.3,-13.0,29.97,NW,315,10.0,12.8,44,0.00,,,0.00,Rainwise IP-100,2013-01-23 15:54:00,
2013-01-23 10:59:00,0.3,-13.0,29.96,WNW,292,2.1,14.0,44,0.00,,,0.00,Rainwise IP-100,2013-01-23 15:59:00,
2013-01-23 11:04:00,0.5,-13.0,29.96,WNW,292,7.0,18.4,44,0.00,,,0.00,Rainwise IP-100,2013-01-23 16:04:00,
2013-01-23 11:09:00,0.4,-13.0,29.96,WNW,292,4.7,20.1,43,0.00,,,0.00,Rainwise IP-100,2013-01-23 16:09:00,
2013-01-23 11:14:00,0.3,-13.0,29.95,West,270,5.1,12.6,43,0.00,,,0.00,Rainwise IP-100,2013-01-23 16:14:00,
2013-01-23 11:19:00,0.8,-13.0,29.95,WNW,292,4.0,9.8,43,0.00,,,0.00,Rainwise IP-100,2013-01-23 16:19:00,
2013-01-23 11:24:00,1.1,-13.0,29.95,NNW,337,7.9,17.5,43,0.00,,,0.00,Rainwise IP-100,2013-01-23 16:24:00,
2013-01-23 11:29:00,1.2,-13.0,29.96,WNW,292,8.4,11.2,42,0.00,,,0.00,Rainwise IP-100,2013-01-23 16:29:00,
2013-01-23 11:34:00,1.4,-13.0,29.95,WNW,292,10.3,16.8,41,0.00,,,0.00,Rainwise IP-100,2013-01-23 16:34:00,
2013-01-23 11:39:00,1.3,-13.0,29.95,WNW,292,5.1,14.9,41,0.00,,,0.00,Rainwise IP-100,2013-01-23 16:39:00,
2013-01-23 11:44:00,1.5,-13.0,29.95,NNW,337,5.1,14.7,41,0.00,,,0.00,Rainwise IP-100,2013-01-23 16:44:00,
2013-01-23 11:49:00,1.9,-13.0,29.95,WNW,292,2.8,13.5,40,0.00,,,0.00,Rainwise IP-100,2013-01-23 16:49:00,
2013-01-23 11:54:00,2.4,-13.0,29.95,NW,315,5.8,13.5,40,0.00,,,0.00,Rainwise IP-100,2013-01-23 16:54:00,
2013-01-23 11:59:00,2.4,-13.0,29.95,WNW,292,4.2,11.9,40,0.00,,,0.00,Rainwise IP-100,2013-01-23 16:59:00,
2013-01-23 12:04:00,2.1,-13.0,29.95,SSE,157,1.9,16.3,40,0.00,,,0.00,Rainwise IP-100,2013-01-23 17:04:00,
2013-01-23 12:09:00,2.1,-13.0,29.95,WNW,292,10.7,11.9,40,0.00,,,0.00,Rainwise IP-100,2013-01-23 17:09:00,
2013-01-23 12:14:00,1.9,-13.0,29.94,WNW,292,7.5,16.1,39,0.00,,,0.00,Rainwise IP-100,2013-01-23 17:14:00,
2013-01-23 12:19:00,1.9,-13.0,29.94,North,360,8.9,13.5,39,0.00,,,0.00,Rainwise IP-100,2013-01-23 17:19:00,
2013-01-23 12:24:00,2.0,-13.0,29.93,West,270,8.6,12.1,39,0.00,,,0.00,Rainwise IP-100,2013-01-23 17:24:00,
2013-01-23 12:29:00,1.9,-13.0,29.93,North,360,6.3,17.3,39,0.00,,,0.00,Rainwise IP-100,2013-01-23 17:29:00,
2013-01-23 12:34:00,1.7,-13.0,29.93,WNW,292,1.9,17.7,39,0.00,,,0.00,Rainwise IP-100,2013-01-23 17:34:00,
2013-01-23 12:39:00,2.0,-13.0,29.93,West,270,3.5,12.4,39,0.00,,,0.00,Rainwise IP-100,2013-01-23 17:39:00,
2013-01-23 12:44:00,2.4,-13.0,29.93,WNW,292,8.9,18.4,39,0.00,,,0.00,Rainwise IP-100,2013-01-23 17:44:00,
2013-01-23 12:49:00,2.3,-13.0,29.92,WSW,247,4.2,18.4,38,0.00,,,0.00,Rainwise IP-100,2013-01-23 17:49:00,
2013-01-23 12:54:00,2.4,-13.0,29.92,NNW,337,4.2,14.0,39,0.00,,,0.00,Rainwise IP-100,2013-01-23 17:54:00,
2013-01-23 12:59:00,2.4,-13.0,29.92,WNW,292,7.7,16.8,38,0.00,,,0.00,Rainwise IP-100,2013-01-23 17:59:00,
2013-01-23 13:04:00,2.6,-13.0,29.93,West,270,3.0,9.1,39,0.00,,,0.00,Rainwise IP-100,2013-01-23 18:04:00,
2013-01-23 13:09:00,3.0,-13.0,29.93,WNW,292,15.6,15.6,39,0.00,,,0.00,Rainwise IP-100,2013-01-23 18:09:00,
2013-01-23 13:14:00,2.7,-13.0,29.92,NNW,337,4.9,19.8,38,0.00,,,0.00,Rainwise IP-100,2013-01-23 18:14:00,
2013-01-23 13:19:00,2.4,-13.0,29.92,NNW,337,11.2,13.1,37,0.00,,,0.00,Rainwise IP-100,2013-01-23 18:19:00,
2013-01-23 13:24:00,2.3,-13.0,29.92,WNW,292,7.7,15.9,37,0.00,,,0.00,Rainwise IP-100,2013-01-23 18:24:00,
2013-01-23 13:29:00,2.4,-13.0,29.92,WNW,292,7.9,17.3,37,0.00,,,0.00,Rainwise IP-100,2013-01-23 18:29:00,
2013-01-23 13:34:00,2.4,-13.0,29.93,NW,315,3.5,15.2,36,0.00,,,0.00,Rainwise IP-100,2013-01-23 18:34:00,
2013-01-23 13:39:00,2.3,-13.0,29.92,SSW,202,0.0,19.6,36,0.00,,,0.00,Rainwise IP-100,2013-01-23 18:39:00,
2013-01-23 13:44:00,2.7,-13.0,29.92,North,360,5.1,11.0,36,0.00,,,0.00,Rainwise IP-100,2013-01-23 18:44:00,
2013-01-23 13:49:00,3.4,-13.0,29.92,West,270,9.3,11.7,37,0.00,,,0.00,Rainwise IP-100,2013-01-23 18:49:00,
2013-01-23 13:54:00,3.4,-13.0,29.92,NNW,337,4.9,12.8,36,0.00,,,0.00,Rainwise IP-100,2013-01-23 18:54:00,
2013-01-23 13:59:00,3.1,-13.0,29.92,North,360,6.8,14.9,36,0.00,,,0.00,Rainwise IP-100,2013-01-23 18:59:00,
2013-01-23 14:04:00,3.1,-13.0,29.92,NW,315,7.5,15.9,36,0.00,,,0.00,Rainwise IP-100,2013-01-23 19:04:00,
2013-01-23 14:09:00,3.2,-13.0,29.93,West,270,6.5,13.3,36,0.00,,,0.00,Rainwise IP-100,2013-01-23 19:09:00,
2013-01-23 14:14:00,3.2,-13.0,29.92,WNW,292,5.1,18.9,36,0.00,,,0.00,Rainwise IP-100,2013-01-23 19:14:00,
2013-01-23 14:19:00,3.3,-13.0,29.92,West,270,2.1,12.6,36,0.00,,,0.00,Rainwise IP-100,2013-01-23 19:19:00,
2013-01-23 14:24:00,3.5,-13.0,29.92,NNW,337,6.5,13.8,36,0.00,,,0.00,Rainwise IP-100,2013-01-23 19:24:00,
2013-01-23 14:29:00,3.7,-13.0,29.92,NNW,337,11.0,11.7,36,0.00,,,0.00,Rainwise IP-100,2013-01-23 19:29:00,
2013-01-23 14:34:00,3.8,-13.0,29.92,NNW,337,5.1,13.5,36,0.00,,,0.00,Rainwise IP-100,2013-01-23 19:34:00,
2013-01-23 14:39:00,3.9,-13.0,29.92,WNW,292,7.5,12.1,36,0.00,,,0.00,Rainwise IP-100,2013-01-23 19:39:00,
2013-01-23 14:44:00,4.0,-13.0,29.92,NNE,22,5.1,11.9,35,0.00,,,0.00,Rainwise IP-100,2013-01-23 19:44:00,
2013-01-23 14:49:00,3.9,-13.0,29.93,NW,315,10.5,14.7,35,0.00,,,0.00,Rainwise IP-100,2013-01-23 19:49:00,
2013-01-23 14:54:00,3.8,-13.0,29.93,NNE,22,3.0,11.2,35,0.00,,,0.00,Rainwise IP-100,2013-01-23 19:54:00,
2013-01-23 14:59:00,3.7,-13.0,29.93,WNW,292,3.5,12.6,36,0.00,,,0.00,Rainwise IP-100,2013-01-23 19:59:00,
2013-01-23 15:04:00,3.3,-13.0,29.93,West,270,3.3,17.7,36,0.00,,,0.00,Rainwise IP-100,2013-01-23 20:04:00,
2013-01-23 15:09:00,3.0,-13.0,29.93,NNW,337,5.6,14.7,36,0.00,,,0.00,Rainwise IP-100,2013-01-23 20:09:00,
2013-01-23 15:14:00,2.7,-13.0,29.93,WNW,292,7.2,15.2,37,0.00,,,0.00,Rainwise IP-100,2013-01-23 20:14:00,
2013-01-23 15:19:00,2.5,-13.0,29.93,NW,315,2.8,13.1,37,0.00,,,0.00,Rainwise IP-100,2013-01-23 20:19:00,
2013-01-23 15:24:00,2.3,-13.0,29.93,NNW,337,7.9,13.3,37,0.00,,,0.00,Rainwise IP-100,2013-01-23 20:24:00,
2013-01-23 15:29:00,2.1,-13.0,29.93,WNW,292,4.0,13.3,38,0.00,,,0.00,Rainwise IP-100,2013-01-23 20:29:00,
2013-01-23 15:34:00,1.9,-13.0,29.93,NNW,337,11.4,13.3,38,0.00,,,0.00,Rainwise IP-100,2013-01-23 20:34:00,
2013-01-23 15:39:00,1.9,-13.0,29.93,NW,315,9.3,14.7,38,0.00,,,0.00,Rainwise IP-100,2013-01-23 20:39:00,
2013-01-23 15:44:00,1.9,-13.0,29.93,West,270,4.4,12.1,38,0.00,,,0.00,Rainwise IP-100,2013-01-23 20:44:00,
2013-01-23 15:49:00,1.8,-13.0,29.94,West,270,8.2,9.8,39,0.00,,,0.00,Rainwise IP-100,2013-01-23 20:49:00,
2013-01-23 15:54:00,1.4,-13.0,29.93,WNW,292,4.7,15.6,39,0.00,,,0.00,Rainwise IP-100,2013-01-23 20:54:00,
2013-01-23 15:59:00,1.0,-13.0,29.93,West,270,7.0,13.8,40,0.00,,,0.00,Rainwise IP-100,2013-01-23 20:59:00,
2013-01-23 16:04:00,0.7,-13.0,29.93,WNW,292,5.8,11.4,40,0.00,,,0.00,Rainwise IP-100,2013-01-23 21:04:00,
2013-01-23 16:09:00,0.5,-13.0,29.93,NW,315,7.2,16.1,40,0.00,,,0.00,Rainwise IP-100,2013-01-23 21:09:00,
2013-01-23 16:14:00,0.4,-13.0,29.94,West,270,2.8,15.6,40,0.00,,,0.00,Rainwise IP-100,2013-01-23 21:14:00,
2013-01-23 16:19:00,0.3,-13.0,29.95,WNW,292,7.0,16.1,40,0.00,,,0.00,Rainwise IP-100,2013-01-23 21:19:00,
2013-01-23 16:24:00,0.1,-13.0,29.94,West,270,7.0,14.0,41,0.00,,,0.00,Rainwise IP-100,2013-01-23 21:24:00,
2013-01-23 16:29:00,0.1,-13.0,29.95,NW,315,4.9,16.8,41,0.00,,,0.00,Rainwise IP-100,2013-01-23 21:29:00,
2013-01-23 16:34:00,0.3,-13.0,29.95,WNW,292,5.6,16.1,41,0.00,,,0.00,Rainwise IP-100,2013-01-23 21:34:00,
2013-01-23 16:39:00,0.4,-13.0,29.95,WSW,247,2.1,14.5,41,0.00,,,0.00,Rainwise IP-100,2013-01-23 21:39:00,
2013-01-23 16:44:00,0.5,-13.0,29.95,West,270,4.0,11.7,42,0.00,,,0.00,Rainwise IP-100,2013-01-23 21:44:00,
2013-01-23 16:49:00,0.7,-13.0,29.95,WSW,247,3.5,12.6,42,0.00,,,0.00,Rainwise IP-100,2013-01-23 21:49:00,
2013-01-23 16:54:00,-1.0,-13.0,29.95,WNW,292,4.0,19.1,43,0.00,,,0.00,Rainwise IP-100,2013-01-23 21:54:00,
2013-01-23 16:59:00,-1.1,-13.0,29.95,West,270,3.0,17.3,43,0.00,,,0.00,Rainwise IP-100,2013-01-23 21:59:00,
2013-01-23 17:04:00,-1.1,-13.0,29.95,West,270,3.5,16.8,43,0.00,,,0.00,Rainwise IP-100,2013-01-23 22:04:00,
2013-01-23 17:09:00,-1.2,-13.0,29.96,West,270,5.1,13.5,43,0.00,,,0.00,Rainwise IP-100,2013-01-23 22:09:00,
2013-01-23 17:14:00,-1.3,-13.0,29.96,WNW,292,4.4,15.9,43,0.00,,,0.00,Rainwise IP-100,2013-01-23 22:14:00,
2013-01-23 17:19:00,-1.5,-13.0,29.96,WSW,247,5.4,10.7,44,0.00,,,0.00,Rainwise IP-100,2013-01-23 22:19:00,
2013-01-23 17:24:00,-1.6,-13.0,29.97,NE,45,1.2,11.7,44,0.00,,,0.00,Rainwise IP-100,2013-01-23 22:24:00,
2013-01-23 17:29:00,-1.7,-13.0,29.97,NW,315,4.9,14.0,45,0.00,,,0.00,Rainwise IP-100,2013-01-23 22:29:00,
2013-01-23 17:34:00,-1.8,-13.0,29.97,West,270,5.6,14.5,45,0.00,,,0.00,Rainwise IP-100,2013-01-23 22:34:00,
2013-01-23 17:39:00,-1.9,-13.0,29.97,NNW,337,11.0,14.2,45,0.00,,,0.00,Rainwise IP-100,2013-01-23 22:39:00,
2013-01-23 17:44:00,-2.0,-13.0,29.97,WNW,292,6.1,16.3,45,0.00,,,0.00,Rainwise IP-100,2013-01-23 22:44:00,
2013-01-23 17:49:00,-2.1,-13.0,29.97,WNW,292,1.6,14.5,45,0.00,,,0.00,Rainwise IP-100,2013-01-23 22:49:00,
2013-01-23 17:54:00,-2.2,-13.0,29.97,WNW,292,3.5,9.8,45,0.00,,,0.00,Rainwise IP-100,2013-01-23 22:54:00,
2013-01-23 17:59:00,-2.3,-13.0,29.97,SSW,202,2.1,13.3,46,0.00,,,0.00,Rainwise IP-100,2013-01-23 22:59:00,
2013-01-23 18:04:00,-2.5,-13.0,29.97,WNW,292,3.5,15.2,47,0.00,,,0.00,Rainwise IP-100,2013-01-23 23:04:00,
2013-01-23 18:09:00,-2.5,-13.0,29.97,NNW,337,5.1,12.4,47,0.00,,,0.00,Rainwise IP-100,2013-01-23 23:09:00,
2013-01-23 18:14:00,-2.5,-13.0,29.97,NW,315,1.9,8.9,47,0.00,,,0.00,Rainwise IP-100,2013-01-23 23:14:00,
2013-01-23 18:19:00,-2.8,-13.0,29.97,WNW,292,3.3,16.1,47,0.00,,,0.00,Rainwise IP-100,2013-01-23 23:19:00,
2013-01-23 18:24:00,-2.9,-13.0,29.97,North,360,2.6,14.5,48,0.00,,,0.00,Rainwise IP-100,2013-01-23 23:24:00,
2013-01-23 18:29:00,-3.0,-13.0,29.97,WSW,247,5.4,11.7,48,0.00,,,0.00,Rainwise IP-100,2013-01-23 23:29:00,
2013-01-23 18:34:00,-3.0,-13.0,29.97,WNW,292,2.8,13.5,48,0.00,,,0.00,Rainwise IP-100,2013-01-23 23:34:00,
2013-01-23 18:39:00,-3.0,-13.0,29.97,NW,315,9.3,14.5,48,0.00,,,0.00,Rainwise IP-100,2013-01-23 23:39:00,
2013-01-23 18:44:00,-3.1,-13.0,29.98,WNW,292,3.0,9.8,48,0.00,,,0.00,Rainwise IP-100,2013-01-23 23:44:00,
2013-01-23 18:49:00,-3.2,-13.0,29.98,West,270,1.2,10.5,49,0.00,,,0.00,Rainwise IP-100,2013-01-23 23:49:00,
2013-01-23 18:54:00,-3.4,-13.0,29.98,SW,225,4.2,9.3,49,0.00,,,0.00,Rainwise IP-100,2013-01-23 23:54:00,
2013-01-23 18:59:00,-3.5,-13.0,29.98,WNW,292,3.3,5.4,49,0.00,,,0.00,Rainwise IP-100,2013-01-23 23:59:00,
2013-01-23 19:04:00,-3.7,-13.0,29.98,WNW,292,0.0,7.5,49,0.00,,,0.00,Rainwise IP-100,2013-01-24 00:04:00,
2013-01-23 19:09:00,-3.8,-13.0,29.98,WSW,247,1.2,9.3,50,0.00,,,0.00,Rainwise IP-100,2013-01-24 00:09:00,
2013-01-23 19:14:00,-3.9,-13.0,29.98,WNW,292,4.0,7.2,50,0.00,,,0.00,Rainwise IP-100,2013-01-24 00:14:00,
2013-01-23 19:19:00,-4.0,-13.0,29.98,West,270,3.3,7.5,50,0.00,,,0.00,Rainwise IP-100,2013-01-24 00:19:00,
2013-01-23 19:24:00,-4.0,-13.0,29.99,NNW,337,2.6,6.3,50,0.00,,,0.00,Rainwise IP-100,2013-01-24 00:24:00,
2013-01-23 19:29:00,-4.0,-13.0,29.99,NNW,337,4.0,9.6,51,0.00,,,0.00,Rainwise IP-100,2013-01-24 00:29:00,
2013-01-23 19:34:00,-4.1,-13.0,29.99,WNW,292,3.0,9.8,51,0.00,,,0.00,Rainwise IP-100,2013-01-24 00:34:00,
2013-01-23 19:39:00,-4.1,-13.0,29.98,West,270,5.1,9.8,51,0.00,,,0.00,Rainwise IP-100,2013-01-24 00:39:00,
2013-01-23 19:44:00,-4.1,-13.0,29.98,West,270,6.1,9.3,51,0.00,,,0.00,Rainwise IP-100,2013-01-24 00:44:00,
2013-01-23 19:49:00,-4.0,-13.0,29.98,NW,315,2.3,12.4,51,0.00,,,0.00,Rainwise IP-100,2013-01-24 00:49:00,
2013-01-23 19:54:00,-4.0,-13.0,29.98,West,270,2.3,8.9,51,0.00,,,0.00,Rainwise IP-100,2013-01-24 00:54:00,
2013-01-23 19:59:00,-4.2,-13.0,29.98,WSW,247,2.8,7.5,51,0.00,,,0.00,Rainwise IP-100,2013-01-24 00:59:00,
2013-01-23 20:04:00,-4.3,-13.0,29.98,WSW,247,2.6,8.2,52,0.00,,,0.00,Rainwise IP-100,2013-01-24 01:04:00,
2013-01-23 20:09:00,-4.4,-13.0,29.98,WNW,292,3.5,9.3,52,0.00,,,0.00,Rainwise IP-100,2013-01-24 01:09:00,
2013-01-23 20:14:00,-4.4,-13.0,29.98,WNW,292,0.0,7.9,52,0.00,,,0.00,Rainwise IP-100,2013-01-24 01:14:00,
2013-01-23 20:19:00,-4.4,-13.0,29.98,NW,315,2.8,5.4,52,0.00,,,0.00,Rainwise IP-100,2013-01-24 01:19:00,
2013-01-23 20:24:00,-4.5,-13.0,29.98,NNW,337,7.0,7.0,52,0.00,,,0.00,Rainwise IP-100,2013-01-24 01:24:00,
2013-01-23 20:29:00,-4.6,-13.0,29.98,NNW,337,4.9,8.4,53,0.00,,,0.00,Rainwise IP-100,2013-01-24 01:29:00,
2013-01-23 20:34:00,-4.6,-13.0,29.98,NW,315,1.9,10.3,53,0.00,,,0.00,Rainwise IP-100,2013-01-24 01:34:00,
2013-01-23 20:39:00,-4.6,-13.0,29.98,WSW,247,1.6,10.7,53,0.00,,,0.00,Rainwise IP-100,2013-01-24 01:39:00,
2013-01-23 20:44:00,-4.5,-13.0,29.98,WNW,292,3.0,8.6,53,0.00,,,0.00,Rainwise IP-100,2013-01-24 01:44:00,
2013-01-23 20:49:00,-4.7,-13.0,29.98,WSW,247,1.6,7.9,53,0.00,,,0.00,Rainwise IP-100,2013-01-24 01:49:00,
2013-01-23 20:54:00,-4.7,-13.0,29.98,WNW,292,1.6,9.6,53,0.00,,,0.00,Rainwise IP-100,2013-01-24 01:54:00,
2013-01-23 20:59:00,-4.8,-13.0,29.98,WNW,292,3.0,9.8,54,0.00,,,0.00,Rainwise IP-100,2013-01-24 01:59:00,
2013-01-23 21:04:00,-5.0,-13.0,29.98,WNW,292,6.8,7.2,54,0.00,,,0.00,Rainwise IP-100,2013-01-24 02:04:00,
2013-01-23 21:09:00,-5.1,-13.0,29.98,WNW,292,1.4,8.2,55,0.00,,,0.00,Rainwise IP-100,2013-01-24 02:09:00,
2013-01-23 21:14:00,-5.1,-13.0,29.98,WNW,292,5.1,12.6,55,0.00,,,0.00,Rainwise IP-100,2013-01-24 02:14:00,
2013-01-23 21:19:00,-5.1,-13.0,29.98,WNW,292,4.0,11.7,55,0.00,,,0.00,Rainwise IP-100,2013-01-24 02:19:00,
2013-01-23 21:24:00,-5.1,-13.0,29.98,West,270,0.0,9.3,55,0.00,,,0.00,Rainwise IP-100,2013-01-24 02:24:00,
2013-01-23 21:29:00,-5.2,-13.0,29.98,NW,315,4.7,10.0,55,0.00,,,0.00,Rainwise IP-100,2013-01-24 02:29:00,
2013-01-23 21:34:00,-5.2,-13.0,29.98,WNW,292,4.0,8.4,55,0.00,,,0.00,Rainwise IP-100,2013-01-24 02:34:00,
2013-01-23 21:39:00,-5.2,-13.0,29.98,WNW,292,5.6,12.8,55,0.00,,,0.00,Rainwise IP-100,2013-01-24 02:39:00,
2013-01-23 21:44:00,-5.2,-13.0,29.98,NNW,337,3.5,12.6,54,0.00,,,0.00,Rainwise IP-100,2013-01-24 02:44:00,
2013-01-23 21:49:00,-5.2,-13.0,29.98,West,270,2.8,10.5,54,0.00,,,0.00,Rainwise IP-100,2013-01-24 02:49:00,
2013-01-23 21:54:00,-5.3,-13.0,29.97,WNW,292,2.1,10.0,55,0.00,,,0.00,Rainwise IP-100,2013-01-24 02:54:00,
2013-01-23 21:59:00,-5.6,-13.0,29.97,NW,315,4.7,8.4,55,0.00,,,0.00,Rainwise IP-100,2013-01-24 02:59:00,
2013-01-23 22:04:00,-5.7,-13.0,29.98,SW,225,0.0,8.6,55,0.00,,,0.00,Rainwise IP-100,2013-01-24 03:04:00,
2013-01-23 22:09:00,-5.8,-13.0,29.98,NNW,337,2.8,7.5,56,0.00,,,0.00,Rainwise IP-100,2013-01-24 03:09:00,
2013-01-23 22:14:00,-6.0,-13.0,29.97,NNW,337,4.9,9.6,56,0.00,,,0.00,Rainwise IP-100,2013-01-24 03:14:00,
2013-01-23 22:19:00,-6.2,-13.0,29.98,WNW,292,2.3,9.6,57,0.00,,,0.00,Rainwise IP-100,2013-01-24 03:19:00,
2013-01-23 22:24:00,-6.1,-13.0,29.98,NNW,337,4.0,9.6,57,0.00,,,0.00,Rainwise IP-100,2013-01-24 03:24:00,
2013-01-23 22:29:00,-6.2,-13.0,29.98,West,270,4.2,10.0,57,0.00,,,0.00,Rainwise IP-100,2013-01-24 03:29:00,
2013-01-23 22:34:00,-6.3,-13.0,29.98,WNW,292,7.2,10.7,57,0.00,,,0.00,Rainwise IP-100,2013-01-24 03:34:00,
2013-01-23 22:39:00,-6.5,-13.0,29.98,WNW,292,7.5,9.8,57,0.00,,,0.00,Rainwise IP-100,2013-01-24 03:39:00,
2013-01-23 22:44:00,-6.5,-13.0,29.98,WSW,247,5.8,8.6,57,0.00,,,0.00,Rainwise IP-100,2013-01-24 03:44:00,
2013-01-23 22:49:00,-6.6,-13.0,29.97,NNW,337,2.3,8.6,57,0.00,,,0.00,Rainwise IP-100,2013-01-24 03:49:00,
2013-01-23 22:54:00,-6.7,-13.0,29.98,ENE,67,0.0,11.4,57,0.00,,,0.00,Rainwise IP-100,2013-01-24 03:54:00,
2013-01-23 22:59:00,-6.7,-13.0,29.97,NW,315,4.9,13.1,57,0.00,,,0.00,Rainwise IP-100,2013-01-24 03:59:00,
2013-01-23 23:04:00,-6.6,-13.0,29.97,West,270,3.3,10.5,57,0.00,,,0.00,Rainwise IP-100,2013-01-24 04:04:00,
2013-01-23 23:09:00,-6.6,-13.0,29.97,WNW,292,3.3,10.5,57,0.00,,,0.00,Rainwise IP-100,2013-01-24 04:09:00,
2013-01-23 23:14:00,-6.7,-13.0,29.97,West,270,7.0,12.6,57,0.00,,,0.00,Rainwise IP-100,2013-01-24 04:14:00,
2013-01-23 23:19:00,-6.8,-13.0,29.98,West,270,3.3,14.0,57,0.00,,,0.00,Rainwise IP-100,2013-01-24 04:19:00,
2013-01-23 23:24:00,-6.9,-13.0,29.97,NW,315,6.5,11.0,57,0.00,,,0.00,Rainwise IP-100,2013-01-24 04:24:00,
2013-01-23 23:29:00,-6.9,-13.0,29.97,West,270,6.8,11.4,57,0.00,,,0.00,Rainwise IP-100,2013-01-24 04:29:00,
2013-01-23 23:34:00,-7.0,-13.0,29.97,WNW,292,4.4,13.5,58,0.00,,,0.00,Rainwise IP-100,2013-01-24 04:34:00,
2013-01-23 23:39:00,-7.2,-13.0,29.97,WNW,292,6.5,9.6,58,0.00,,,0.00,Rainwise IP-100,2013-01-24 04:39:00,
2013-01-23 23:44:00,-7.2,-13.0,29.96,WNW,292,2.1,10.5,58,0.00,,,0.00,Rainwise IP-100,2013-01-24 04:44:00,
2013-01-23 23:49:00,-7.3,-13.0,29.96,NNW,337,5.4,12.4,58,0.00,,,0.00,Rainwise IP-100,2013-01-24 04:49:00,
2013-01-23 23:54:00,-7.3,-13.0,29.96,West,270,3.3,9.3,58,0.00,,,0.00,Rainwise IP-100,2013-01-24 04:54:00,
2013-01-23 23:59:00,-7.4,-13.0,29.95,NW,315,3.0,9.8,58,0.00,,,0.00,Rainwise IP-100,2013-01-24 04:59:00,